カタログに戻る

ICEYE-X44

運用中科学SSO
NORAD 62707·PAYLOAD·🇦🇪 UAE

打ち上げ Jan 14, 2025 から Vandenberg Space Force Base

Loading…

次のパス (今後24時間)

TLE

最新Source: Space-Track

元期: Sep 14, 2026, 03:56 UTC

1 62707U 25009DC  26257.16415040  .00002602  00000-0  23453-3 0  9991
2 62707  97.7000 334.8804 0002106 137.6896 222.4489 14.96425674113246

AllMySatでICEYE-X44をリアルタイム追跡

Download on the App Store